Location: Adrasan
(36.3319°N, 30.4314°E)
Time: 07:04:33
(UTC+00:00)

SL-08 R/B - Pass Details

Date: 09 December 2023
Orbit: 671 x 734 km, 98.5° (Epoch: 29 February)

Event Time Altitude Azimuth Distance (km) Brightness Sun altitude
Exits shadow 16:24:24 14° 10° (N) 1,866 5.3 -19.8°
Maximum altitude 16:28:24 80° 285° (WNW) 700 3.3 -20.6°
Drops below altitude 10° 16:33:05 10° 198° (SSW) 2,143 6.2 -21.5°
Sets 16:35:20 0° 197° (SSW) 3,066 7.0 -22.0°
